Flag for U.S.A. Weather past 2 weeks in Hayward, California, U.S.A.

Now
59 °F

Sunny.


Feels Like: 57 °F
Forecast: 48 / 65 °F
Wind: 10 mph from Northwest

Location: Hayward Air Terminal


UV Index: 5 (Moderate)

Visibility: 10 mi


Pressure: 30.18 "Hg

Humidity: 48%

Dew point: 39 °F

Location of HaywardLocation

Historic Weather in Hayward

°F

Hayward temperature yesterday

Maximum temperature yesterday: 61 °F (at 12:54 PM)
Minimum temperature yesterday: 49 °F (at 4:54 AM)
Average temperature yesterday: 54 °F

Past Weeks' High & Low Weather Summary

 TemperatureHumidityPressure
High78 °F (Apr 8, 2:54 PM)100% (Apr 9, 11:54 PM)30.18 "Hg (Apr 9, 11:54 PM)
Low44 °F (Apr 23, 4:54 AM)38% (Apr 20, 2:54 PM)29.83 "Hg (Apr 17, 4:54 AM)
Average56 °F79%30.02 "Hg
* Reported Apr 8 9:54 AM — Apr 23 9:54 AM, Hayward, Weather by CustomWeather, © 2014

Note: Actual official high and low records may vary slightly from our data, if they occured in-between our weather recording intervals... More about our weather records

Advertising

Historic Weather Conditions — Data for Previous 24 hours

 ConditionsComfort  
Time TempWeatherWind HumidityBarometerVisibility
9:54 AM
Apr 23
57 °FSunny.6 mph51%30.18 "Hg10 mi
8:54 AM53 °FSunny.5 mph56%30.17 "Hg10 mi
7:54 AM49 °FSunny.N/A74%30.17 "Hg10 mi
6:54 AM45 °FClear.3 mph76%30.16 "Hg10 mi
5:54 AM44 °FClear.No wind76%30.14 "Hg10 mi
4:54 AM44 °FClear.3 mph76%30.14 "Hg10 mi
3:54 AM45 °FClear.No wind74%30.14 "Hg10 mi
2:54 AM49 °FClear.No wind64%30.13 "Hg10 mi
1:54 AM51 °FClear.No wind63%30.14 "Hg10 mi
12:54 AM50 °FClear.7 mph66%30.14 "Hg10 mi
11:54 PM
Apr 22
49 °FClear.3 mph69%30.16 "Hg10 mi
10:54 PM49 °FClear.7 mph69%30.15 "Hg10 mi
9:54 PM52 °FClear.8 mph64%30.15 "Hg10 mi
8:54 PM53 °FClear.12 mph66%30.14 "Hg10 mi
7:54 PM53 °FSunny.N/A66%30.13 "Hg10 mi
6:54 PM55 °FSunny.18 mph64%30.12 "Hg10 mi
5:54 PM57 °FSunny.21 mph58%30.13 "Hg10 mi
4:54 PM58 °FSunny.21 mph56%30.13 "Hg10 mi
3:54 PM59 °FSunny.20 mph56%30.13 "Hg10 mi
2:54 PM60 °FSunny.20 mph49%30.14 "Hg10 mi
1:54 PM61 °FSunny.21 mph48%30.13 "Hg10 mi
12:54 PM61 °FSunny.20 mph52%30.13 "Hg10 mi
11:54 AM60 °FSunny.22 mph53%30.13 "Hg10 mi
Weather by CustomWeather, © 2014

See weather overview